Year,Month,Day,Hour,Minute,Value (Times are PST for temperature in C)
2015,03,09,00,00,7.30
2015,03,09,00,01,7.30
2015,03,09,00,02,7.20
2015,03,09,00,03,7.20
2015,03,09,00,04,7.10
2015,03,09,00,05,7.10
2015,03,09,00,06,7.00
2015,03,09,00,07,7.00
2015,03,09,00,08,7.00
2015,03,09,00,09,6.90
2015,03,09,00,10,6.90
2015,03,09,00,11,6.80
2015,03,09,00,12,6.80
2015,03,09,00,13,6.80
2015,03,09,00,14,6.70
2015,03,09,00,15,6.70
2015,03,09,00,16,6.60
2015,03,09,00,17,6.60
2015,03,09,00,18,6.60
2015,03,09,00,19,6.60
2015,03,09,00,20,6.60
2015,03,09,00,21,6.50
2015,03,09,00,22,6.40
2015,03,09,00,23,6.40
2015,03,09,00,24,6.40
2015,03,09,00,25,6.40
2015,03,09,00,26,6.40
2015,03,09,00,27,6.30
2015,03,09,00,28,6.30
2015,03,09,00,29,6.30
2015,03,09,00,30,6.30
2015,03,09,00,31,6.30
2015,03,09,00,32,6.30
2015,03,09,00,33,6.30
2015,03,09,00,34,6.30
2015,03,09,00,35,6.30
2015,03,09,00,36,6.20
2015,03,09,00,37,6.20
2015,03,09,00,38,6.20
2015,03,09,00,39,6.20
2015,03,09,00,40,6.10
2015,03,09,00,41,6.10
2015,03,09,00,42,6.00
2015,03,09,00,43,6.00
2015,03,09,00,44,6.00
2015,03,09,00,45,5.90
2015,03,09,00,46,5.90
2015,03,09,00,47,5.90
2015,03,09,00,48,5.90
2015,03,09,00,49,5.80
2015,03,09,00,50,5.80
2015,03,09,00,51,5.80
2015,03,09,00,52,5.80
2015,03,09,00,53,5.70
2015,03,09,00,54,5.70
2015,03,09,00,55,5.70
2015,03,09,00,56,5.70
2015,03,09,00,57,5.70
2015,03,09,00,58,5.80
2015,03,09,00,59,5.80
2015,03,09,01,00,5.80
2015,03,09,01,01,5.80
2015,03,09,01,02,5.80
2015,03,09,01,03,5.80
2015,03,09,01,04,5.80
2015,03,09,01,05,5.80
2015,03,09,01,06,5.80
2015,03,09,01,07,5.70
2015,03,09,01,08,5.70
2015,03,09,01,09,5.70
2015,03,09,01,10,5.70
2015,03,09,01,11,5.60
2015,03,09,01,12,5.60
2015,03,09,01,13,5.60
2015,03,09,01,14,5.50
2015,03,09,01,15,5.50
2015,03,09,01,16,5.50
2015,03,09,01,17,5.50
2015,03,09,01,18,5.40
2015,03,09,01,19,5.40
2015,03,09,01,20,5.40
2015,03,09,01,21,5.40
2015,03,09,01,22,5.40
2015,03,09,01,23,5.40
2015,03,09,01,24,5.40
2015,03,09,01,25,5.40
2015,03,09,01,26,5.30
2015,03,09,01,27,5.30
2015,03,09,01,28,5.30
2015,03,09,01,29,5.30
2015,03,09,01,30,5.30
2015,03,09,01,31,5.30
2015,03,09,01,32,5.30
2015,03,09,01,33,5.30
2015,03,09,01,34,5.30
2015,03,09,01,35,5.30
2015,03,09,01,36,5.30
2015,03,09,01,37,5.30
2015,03,09,01,38,5.40
2015,03,09,01,39,5.40
2015,03,09,01,40,5.40
2015,03,09,01,41,5.40
2015,03,09,01,42,5.40
2015,03,09,01,43,5.40
2015,03,09,01,44,5.40
2015,03,09,01,45,5.40
2015,03,09,01,46,5.40
2015,03,09,01,47,5.40
2015,03,09,01,48,5.40
2015,03,09,01,49,5.50
2015,03,09,01,50,5.50
2015,03,09,01,51,5.50
2015,03,09,01,52,5.50
2015,03,09,01,53,5.50
2015,03,09,01,54,5.40
2015,03,09,01,55,5.40
2015,03,09,01,56,5.30
2015,03,09,01,57,5.30
2015,03,09,01,58,5.30
2015,03,09,01,59,5.30
2015,03,09,02,00,5.30
2015,03,09,02,01,5.30
2015,03,09,02,02,5.30
2015,03,09,02,03,5.30
2015,03,09,02,04,5.30
2015,03,09,02,05,5.30
2015,03,09,02,06,5.20
2015,03,09,02,07,5.20
2015,03,09,02,08,5.20
2015,03,09,02,09,5.20
2015,03,09,02,10,5.20
2015,03,09,02,11,5.20
2015,03,09,02,12,5.10
2015,03,09,02,13,5.20
2015,03,09,02,14,5.20
2015,03,09,02,15,5.20
2015,03,09,02,16,5.20
2015,03,09,02,17,5.20
2015,03,09,02,18,5.20
2015,03,09,02,19,5.10
2015,03,09,02,20,5.10
2015,03,09,02,21,5.10
2015,03,09,02,22,5.10
2015,03,09,02,23,5.10
2015,03,09,02,24,5.10
2015,03,09,02,25,5.10
2015,03,09,02,26,5.10
2015,03,09,02,27,5.10
2015,03,09,02,28,5.10
2015,03,09,02,29,5.10
2015,03,09,02,30,5.00
2015,03,09,02,31,4.90
2015,03,09,02,32,4.90
2015,03,09,02,33,4.90
2015,03,09,02,34,4.90
2015,03,09,02,35,4.80
2015,03,09,02,36,4.80
2015,03,09,02,37,4.80
2015,03,09,02,38,4.80
2015,03,09,02,39,4.80
2015,03,09,02,40,4.90
2015,03,09,02,41,4.90
2015,03,09,02,42,5.00
2015,03,09,02,43,5.10
2015,03,09,02,44,5.10
2015,03,09,02,45,5.10
2015,03,09,02,46,5.20
2015,03,09,02,47,5.20
2015,03,09,02,48,5.30
2015,03,09,02,49,5.30
2015,03,09,02,50,5.30
2015,03,09,02,51,5.30
2015,03,09,02,52,5.30
2015,03,09,02,53,5.30
2015,03,09,02,54,5.30
2015,03,09,02,55,5.30
2015,03,09,02,56,5.30
2015,03,09,02,57,5.30
2015,03,09,02,58,5.30
2015,03,09,02,59,5.30
2015,03,09,03,00,5.30
2015,03,09,03,01,5.30
2015,03,09,03,02,5.30
2015,03,09,03,03,5.30
2015,03,09,03,04,5.20
2015,03,09,03,05,5.20
2015,03,09,03,06,5.10
2015,03,09,03,07,5.10
2015,03,09,03,08,5.10
2015,03,09,03,09,5.00
2015,03,09,03,10,4.90
2015,03,09,03,11,4.90
2015,03,09,03,12,4.80
2015,03,09,03,13,4.70
2015,03,09,03,14,4.60
2015,03,09,03,15,4.60
2015,03,09,03,16,4.60
2015,03,09,03,17,4.50
2015,03,09,03,18,4.50
2015,03,09,03,19,4.50
2015,03,09,03,20,4.40
2015,03,09,03,21,4.40
2015,03,09,03,22,4.40
2015,03,09,03,23,4.40
2015,03,09,03,24,4.40
2015,03,09,03,25,4.40
2015,03,09,03,26,4.40
2015,03,09,03,27,4.50
2015,03,09,03,28,4.50
2015,03,09,03,29,4.50
2015,03,09,03,30,4.50
2015,03,09,03,31,4.50
2015,03,09,03,32,4.50
2015,03,09,03,33,4.40
2015,03,09,03,34,4.40
2015,03,09,03,35,4.40
2015,03,09,03,36,4.30
2015,03,09,03,37,4.30
2015,03,09,03,38,4.30
2015,03,09,03,39,4.30
2015,03,09,03,40,4.20
2015,03,09,03,41,4.20
2015,03,09,03,42,4.20
2015,03,09,03,43,4.20
2015,03,09,03,44,4.20
2015,03,09,03,45,4.20
2015,03,09,03,46,4.20
2015,03,09,03,47,4.20
2015,03,09,03,48,4.20
2015,03,09,03,49,4.10
2015,03,09,03,50,4.10
2015,03,09,03,51,4.10
2015,03,09,03,52,4.00
2015,03,09,03,53,4.00
2015,03,09,03,54,4.00
2015,03,09,03,55,3.90
2015,03,09,03,56,3.90
2015,03,09,03,57,3.90
2015,03,09,03,58,3.90
2015,03,09,03,59,3.90
2015,03,09,04,00,3.90
2015,03,09,04,01,3.90
2015,03,09,04,02,3.90
2015,03,09,04,03,3.90
2015,03,09,04,04,3.90
2015,03,09,04,05,3.90
2015,03,09,04,06,3.90
2015,03,09,04,07,3.90
2015,03,09,04,08,4.00
2015,03,09,04,09,4.00
2015,03,09,04,10,4.00
2015,03,09,04,11,4.00
2015,03,09,04,12,4.00
2015,03,09,04,13,4.10
2015,03,09,04,14,4.20
2015,03,09,04,15,4.20
2015,03,09,04,16,4.20
2015,03,09,04,17,4.20
2015,03,09,04,18,4.20
2015,03,09,04,19,4.10
2015,03,09,04,20,4.10
2015,03,09,04,21,4.10
2015,03,09,04,22,4.10
2015,03,09,04,23,4.10
2015,03,09,04,24,4.10
2015,03,09,04,25,4.10
2015,03,09,04,26,4.10
2015,03,09,04,27,4.10
2015,03,09,04,28,4.10
2015,03,09,04,29,4.10
2015,03,09,04,30,4.20
2015,03,09,04,31,4.20
2015,03,09,04,32,4.20
2015,03,09,04,33,4.20
2015,03,09,04,34,4.20
2015,03,09,04,35,4.10
2015,03,09,04,36,4.10
2015,03,09,04,37,4.00
2015,03,09,04,38,4.00
2015,03,09,04,39,3.90
2015,03,09,04,40,3.80
2015,03,09,04,41,3.80
2015,03,09,04,42,3.80
2015,03,09,04,43,3.70
2015,03,09,04,44,3.80
2015,03,09,04,45,3.80
2015,03,09,04,46,3.80
2015,03,09,04,47,3.80
2015,03,09,04,48,3.80
2015,03,09,04,49,3.80
2015,03,09,04,50,3.80
2015,03,09,04,51,3.80
2015,03,09,04,52,3.90
2015,03,09,04,53,4.00
2015,03,09,04,54,4.00
2015,03,09,04,55,4.10
2015,03,09,04,56,4.20
2015,03,09,04,57,4.20
2015,03,09,04,58,4.20
2015,03,09,04,59,4.20
2015,03,09,05,00,4.20
2015,03,09,05,01,4.20
2015,03,09,05,02,4.20
2015,03,09,05,03,4.30
2015,03,09,05,04,4.30
2015,03,09,05,05,4.30
2015,03,09,05,06,4.40
2015,03,09,05,07,4.40
2015,03,09,05,08,4.40
2015,03,09,05,09,4.40
2015,03,09,05,10,4.40
2015,03,09,05,11,4.40
2015,03,09,05,12,4.40
2015,03,09,05,13,4.50
2015,03,09,05,14,4.50
2015,03,09,05,15,4.50
2015,03,09,05,16,4.40
2015,03,09,05,17,4.40
2015,03,09,05,18,4.30
2015,03,09,05,19,4.30
2015,03,09,05,20,4.20
2015,03,09,05,21,4.20
2015,03,09,05,22,4.20
2015,03,09,05,23,4.20
2015,03,09,05,24,4.20
2015,03,09,05,25,4.10
2015,03,09,05,26,4.10
2015,03,09,05,27,4.10
2015,03,09,05,28,4.10
2015,03,09,05,29,4.00
2015,03,09,05,30,4.00
2015,03,09,05,31,4.00
2015,03,09,05,32,4.00
2015,03,09,05,33,4.00
2015,03,09,05,34,4.00
2015,03,09,05,35,3.90
2015,03,09,05,36,3.90
2015,03,09,05,37,3.90
2015,03,09,05,38,3.90
2015,03,09,05,39,3.90
2015,03,09,05,40,4.00
2015,03,09,05,41,4.00
2015,03,09,05,42,4.00
2015,03,09,05,43,3.90
2015,03,09,05,44,3.90
2015,03,09,05,45,3.90
2015,03,09,05,46,3.90
2015,03,09,05,47,3.90
2015,03,09,05,48,3.90
2015,03,09,05,49,3.80
2015,03,09,05,50,3.80
2015,03,09,05,51,3.80
2015,03,09,05,52,3.80
2015,03,09,05,53,3.80
2015,03,09,05,54,3.80
2015,03,09,05,55,3.80
2015,03,09,05,56,3.70
2015,03,09,05,57,3.70
2015,03,09,05,58,3.60
2015,03,09,05,59,3.60
2015,03,09,06,00,3.50
2015,03,09,06,01,3.50
2015,03,09,06,02,3.40
2015,03,09,06,03,3.40
2015,03,09,06,04,3.30
2015,03,09,06,05,3.30
2015,03,09,06,06,3.30
2015,03,09,06,07,3.30
2015,03,09,06,08,3.30
2015,03,09,06,09,3.30
2015,03,09,06,10,3.40
2015,03,09,06,11,3.40
2015,03,09,06,12,3.40
2015,03,09,06,13,3.50
2015,03,09,06,14,3.60
2015,03,09,06,15,3.70
2015,03,09,06,16,3.80
2015,03,09,06,17,4.00
2015,03,09,06,18,4.10
2015,03,09,06,19,4.20
2015,03,09,06,20,4.20
2015,03,09,06,21,4.30
2015,03,09,06,22,4.30
2015,03,09,06,23,4.20
2015,03,09,06,24,4.20
2015,03,09,06,25,4.20
2015,03,09,06,26,4.20
2015,03,09,06,27,4.20
2015,03,09,06,28,4.10
2015,03,09,06,29,4.10
2015,03,09,06,30,4.00
2015,03,09,06,31,4.00
2015,03,09,06,32,4.00
2015,03,09,06,33,3.90
2015,03,09,06,34,3.80
2015,03,09,06,35,3.80
2015,03,09,06,36,3.80
2015,03,09,06,37,3.80
2015,03,09,06,38,3.80
2015,03,09,06,39,3.80
2015,03,09,06,40,3.70
2015,03,09,06,41,3.70
2015,03,09,06,42,3.70
2015,03,09,06,43,3.60
2015,03,09,06,44,3.60
2015,03,09,06,45,3.60
2015,03,09,06,46,3.60
2015,03,09,06,47,3.60
2015,03,09,06,48,3.60
2015,03,09,06,49,3.60
2015,03,09,06,50,3.50
2015,03,09,06,51,3.50
2015,03,09,06,52,3.50
2015,03,09,06,53,3.40
2015,03,09,06,54,3.30
2015,03,09,06,55,3.30
2015,03,09,06,56,3.30
2015,03,09,06,57,3.20
2015,03,09,06,58,3.20
2015,03,09,06,59,3.10
2015,03,09,07,00,3.10
2015,03,09,07,01,3.10
2015,03,09,07,02,3.10
2015,03,09,07,03,3.00
2015,03,09,07,04,2.90
2015,03,09,07,05,2.90
2015,03,09,07,06,2.90
2015,03,09,07,07,2.90
2015,03,09,07,08,2.90
2015,03,09,07,09,2.90
2015,03,09,07,10,2.90
2015,03,09,07,11,2.90
2015,03,09,07,12,2.90
2015,03,09,07,13,2.80
2015,03,09,07,14,2.80
2015,03,09,07,15,2.80
2015,03,09,07,16,2.80
2015,03,09,07,17,2.80
2015,03,09,07,18,2.80
2015,03,09,07,19,2.80
2015,03,09,07,20,2.80
2015,03,09,07,21,2.80
2015,03,09,07,22,2.90
2015,03,09,07,23,2.90
2015,03,09,07,24,2.90
2015,03,09,07,25,3.00
2015,03,09,07,26,3.10
2015,03,09,07,27,3.10
2015,03,09,07,28,3.10
2015,03,09,07,29,3.20
2015,03,09,07,30,3.20
2015,03,09,07,31,3.30
2015,03,09,07,32,3.30
2015,03,09,07,33,3.30
2015,03,09,07,34,3.30
2015,03,09,07,35,3.40
2015,03,09,07,36,3.40
2015,03,09,07,37,3.40
2015,03,09,07,38,3.60
2015,03,09,07,39,3.70
2015,03,09,07,40,3.80
2015,03,09,07,41,3.90
2015,03,09,07,42,4.00
2015,03,09,07,43,4.00
2015,03,09,07,44,4.00
2015,03,09,07,45,4.00
2015,03,09,07,46,4.10
2015,03,09,07,47,4.10
2015,03,09,07,48,4.00
2015,03,09,07,49,4.00
2015,03,09,07,50,3.90
2015,03,09,07,51,3.80
2015,03,09,07,52,3.80
2015,03,09,07,53,3.80
2015,03,09,07,54,3.70
2015,03,09,07,55,3.70
2015,03,09,07,56,3.70
2015,03,09,07,57,3.70
2015,03,09,07,58,3.80
2015,03,09,07,59,3.80
2015,03,09,08,00,3.80
2015,03,09,08,01,3.90
2015,03,09,08,02,4.00
2015,03,09,08,03,4.00
2015,03,09,08,04,4.10
2015,03,09,08,05,4.10
2015,03,09,08,06,4.20
2015,03,09,08,07,4.20
2015,03,09,08,08,4.20
2015,03,09,08,09,4.20
2015,03,09,08,10,4.20
2015,03,09,08,11,4.30
2015,03,09,08,12,4.30
2015,03,09,08,13,4.30
2015,03,09,08,14,4.30
2015,03,09,08,15,4.40
2015,03,09,08,16,4.40
2015,03,09,08,17,4.40
2015,03,09,08,18,4.40
2015,03,09,08,19,4.40
2015,03,09,08,20,4.40
2015,03,09,08,21,4.40
2015,03,09,08,22,4.40
2015,03,09,08,23,4.50
2015,03,09,08,24,4.50
2015,03,09,08,25,4.50
2015,03,09,08,26,4.60
2015,03,09,08,27,4.60
2015,03,09,08,28,4.60
2015,03,09,08,29,4.60
2015,03,09,08,30,4.70
2015,03,09,08,31,4.70
2015,03,09,08,32,4.70
2015,03,09,08,33,4.70
2015,03,09,08,34,4.70
2015,03,09,08,35,4.80
2015,03,09,08,36,4.80
2015,03,09,08,37,4.80
2015,03,09,08,38,4.90
2015,03,09,08,39,4.90
2015,03,09,08,40,4.90
2015,03,09,08,41,4.90
2015,03,09,08,42,4.90
2015,03,09,08,43,4.80
2015,03,09,08,44,4.80
2015,03,09,08,45,4.80
2015,03,09,08,46,4.80
2015,03,09,08,47,4.80
2015,03,09,08,48,4.80
2015,03,09,08,49,4.90
2015,03,09,08,50,4.90
2015,03,09,08,51,5.00
2015,03,09,08,52,5.10
2015,03,09,08,53,5.10
2015,03,09,08,54,5.10
2015,03,09,08,55,5.10
2015,03,09,08,56,5.10
2015,03,09,08,57,5.10
2015,03,09,08,58,5.20
2015,03,09,08,59,5.20
2015,03,09,09,00,5.20
2015,03,09,09,01,5.30
2015,03,09,09,02,5.30
2015,03,09,09,03,5.30
2015,03,09,09,04,5.30
2015,03,09,09,05,5.40
2015,03,09,09,06,5.40
2015,03,09,09,07,5.50
2015,03,09,09,08,5.50
2015,03,09,09,09,5.50
2015,03,09,09,10,5.50
2015,03,09,09,11,5.60
2015,03,09,09,12,5.60
2015,03,09,09,13,5.60
2015,03,09,09,14,5.60
2015,03,09,09,15,5.60
2015,03,09,09,16,5.60
2015,03,09,09,17,5.60
2015,03,09,09,18,5.60
2015,03,09,09,19,5.60
2015,03,09,09,20,5.60
2015,03,09,09,21,5.70
2015,03,09,09,22,5.70
2015,03,09,09,23,5.70
2015,03,09,09,24,5.70
2015,03,09,09,25,5.70
2015,03,09,09,26,5.70
2015,03,09,09,27,5.70
2015,03,09,09,28,5.70
2015,03,09,09,29,5.70
2015,03,09,09,30,5.70
2015,03,09,09,31,5.70
2015,03,09,09,32,5.70
2015,03,09,09,33,5.70
2015,03,09,09,34,5.70
2015,03,09,09,35,5.70
2015,03,09,09,36,5.70
2015,03,09,09,37,5.70
2015,03,09,09,38,5.70
2015,03,09,09,39,5.70
2015,03,09,09,40,5.70
2015,03,09,09,41,5.70
2015,03,09,09,42,5.70
2015,03,09,09,43,5.70
2015,03,09,09,44,5.80
2015,03,09,09,45,5.80
2015,03,09,09,46,5.80
2015,03,09,09,47,5.80
2015,03,09,09,48,5.80
2015,03,09,09,49,5.90
2015,03,09,09,50,5.90
2015,03,09,09,51,5.90
2015,03,09,09,52,6.00
2015,03,09,09,53,6.00
2015,03,09,09,54,6.00
2015,03,09,09,55,6.10
2015,03,09,09,56,6.20
2015,03,09,09,57,6.20
2015,03,09,09,58,6.10
2015,03,09,09,59,6.10
2015,03,09,10,00,6.10
2015,03,09,10,01,6.10
2015,03,09,10,02,6.00
2015,03,09,10,03,6.00
2015,03,09,10,04,6.00
2015,03,09,10,05,6.00
2015,03,09,10,06,5.90
2015,03,09,10,07,5.90
2015,03,09,10,08,5.90
2015,03,09,10,09,5.80
2015,03,09,10,10,5.80
2015,03,09,10,11,5.90
2015,03,09,10,12,5.90
2015,03,09,10,13,5.90
2015,03,09,10,14,5.90
2015,03,09,10,15,6.00
2015,03,09,10,16,6.00
2015,03,09,10,17,6.10
2015,03,09,10,18,6.10
2015,03,09,10,19,6.20
2015,03,09,10,20,6.20
2015,03,09,10,21,6.20
2015,03,09,10,22,6.20
2015,03,09,10,23,6.10
2015,03,09,10,24,6.10
2015,03,09,10,25,6.10
2015,03,09,10,26,6.10
2015,03,09,10,27,6.10
2015,03,09,10,28,6.10
2015,03,09,10,29,6.10
2015,03,09,10,30,6.20
2015,03,09,10,31,6.20
2015,03,09,10,32,6.20
2015,03,09,10,33,6.20
2015,03,09,10,34,6.20
2015,03,09,10,35,6.20
2015,03,09,10,36,6.20
2015,03,09,10,37,6.20
2015,03,09,10,38,6.20
2015,03,09,10,39,6.20
2015,03,09,10,40,6.20
2015,03,09,10,41,6.20
2015,03,09,10,42,6.20
2015,03,09,10,43,6.30
2015,03,09,10,44,6.30
2015,03,09,10,45,6.40
2015,03,09,10,46,6.40
2015,03,09,10,47,6.30
2015,03,09,10,48,6.30
2015,03,09,10,49,6.30
2015,03,09,10,50,6.40
2015,03,09,10,51,6.40
2015,03,09,10,52,6.40
2015,03,09,10,53,6.40
2015,03,09,10,54,6.40
2015,03,09,10,55,6.40
2015,03,09,10,56,6.40
2015,03,09,10,57,6.40
2015,03,09,10,58,6.40
2015,03,09,10,59,6.30
2015,03,09,11,00,6.30
2015,03,09,11,01,6.20
2015,03,09,11,02,6.20
2015,03,09,11,03,6.20
2015,03,09,11,04,6.20
2015,03,09,11,05,6.30
2015,03,09,11,06,6.30
2015,03,09,11,07,6.30
2015,03,09,11,08,6.40
2015,03,09,11,09,6.50
2015,03,09,11,10,6.70
2015,03,09,11,11,6.80
2015,03,09,11,12,7.00
2015,03,09,11,13,7.10
2015,03,09,11,14,7.30
2015,03,09,11,15,7.30
2015,03,09,11,16,7.40
2015,03,09,11,17,7.40
2015,03,09,11,18,7.40
2015,03,09,11,19,7.30
2015,03,09,11,20,7.40
2015,03,09,11,21,7.50
2015,03,09,11,22,7.60
2015,03,09,11,23,7.60
2015,03,09,11,24,7.70
2015,03,09,11,25,7.70
2015,03,09,11,26,7.80
2015,03,09,11,27,7.80
2015,03,09,11,28,7.90
2015,03,09,11,29,7.90
2015,03,09,11,30,8.00
2015,03,09,11,31,8.10
2015,03,09,11,32,8.10
2015,03,09,11,33,8.10
2015,03,09,11,34,8.10
2015,03,09,11,35,8.10
2015,03,09,11,36,8.20
2015,03,09,11,37,8.30
2015,03,09,11,38,8.30
2015,03,09,11,39,8.10
2015,03,09,11,40,8.00
2015,03,09,11,41,7.90
2015,03,09,11,42,7.80
2015,03,09,11,43,7.80
2015,03,09,11,44,7.80
2015,03,09,11,45,7.70
2015,03,09,11,46,7.70
2015,03,09,11,47,7.70
2015,03,09,11,48,7.80
2015,03,09,11,49,7.80
2015,03,09,11,50,7.90
2015,03,09,11,51,8.00
2015,03,09,11,52,8.00
2015,03,09,11,53,8.00
2015,03,09,11,54,8.00
2015,03,09,11,55,8.10
2015,03,09,11,56,8.10
2015,03,09,11,57,8.20
2015,03,09,11,58,8.20
2015,03,09,11,59,8.30
2015,03,09,12,00,8.30
2015,03,09,12,01,8.40
2015,03,09,12,02,8.40
2015,03,09,12,03,8.40
2015,03,09,12,04,8.50
2015,03,09,12,05,8.50
2015,03,09,12,06,8.50
2015,03,09,12,07,8.40
2015,03,09,12,08,8.30
2015,03,09,12,09,8.30
2015,03,09,12,10,8.20
2015,03,09,12,11,8.10
2015,03,09,12,12,8.10
2015,03,09,12,13,8.10
2015,03,09,12,14,8.10
2015,03,09,12,15,8.20
2015,03,09,12,16,8.30
2015,03,09,12,17,8.30
2015,03,09,12,18,8.30
2015,03,09,12,19,8.40
2015,03,09,12,20,8.50
2015,03,09,12,21,8.70
2015,03,09,12,22,8.80
2015,03,09,12,23,8.80
2015,03,09,12,24,8.70
2015,03,09,12,25,8.70
2015,03,09,12,26,8.80
2015,03,09,12,27,8.80
2015,03,09,12,28,8.80
2015,03,09,12,29,8.90
2015,03,09,12,30,8.90
2015,03,09,12,31,9.00
2015,03,09,12,32,9.20
2015,03,09,12,33,9.40
2015,03,09,12,34,9.60
2015,03,09,12,35,9.70
2015,03,09,12,36,9.70
2015,03,09,12,37,9.70
2015,03,09,12,38,9.60
2015,03,09,12,39,9.60
2015,03,09,12,40,9.70
2015,03,09,12,41,9.70
2015,03,09,12,42,9.70
2015,03,09,12,43,9.90
2015,03,09,12,44,9.90
2015,03,09,12,45,10.00
2015,03,09,12,46,10.10
2015,03,09,12,47,10.10
2015,03,09,12,48,10.10
2015,03,09,12,49,10.30
2015,03,09,12,50,10.50
2015,03,09,12,51,10.70
2015,03,09,12,52,10.80
2015,03,09,12,53,10.90
2015,03,09,12,54,11.10
2015,03,09,12,55,11.30
2015,03,09,12,56,11.40
2015,03,09,12,57,11.40
2015,03,09,12,58,11.50
2015,03,09,12,59,11.60
2015,03,09,13,00,11.60
2015,03,09,13,01,11.60
2015,03,09,13,02,11.60
2015,03,09,13,03,11.70
2015,03,09,13,04,11.80
2015,03,09,13,05,12.00
2015,03,09,13,06,12.10
2015,03,09,13,07,12.10
2015,03,09,13,08,12.00
2015,03,09,13,09,12.00
2015,03,09,13,10,12.10
2015,03,09,13,11,12.20
2015,03,09,13,12,12.20
2015,03,09,13,13,12.10
2015,03,09,13,14,12.10
2015,03,09,13,15,12.00
2015,03,09,13,16,12.10
2015,03,09,13,17,12.20
2015,03,09,13,18,12.20
2015,03,09,13,19,12.30
2015,03,09,13,20,12.30
2015,03,09,13,21,12.30
2015,03,09,13,22,12.50
2015,03,09,13,23,12.50
2015,03,09,13,24,12.50
2015,03,09,13,25,12.50
2015,03,09,13,26,12.50
2015,03,09,13,27,12.40
2015,03,09,13,28,12.40
2015,03,09,13,29,12.50
2015,03,09,13,30,12.50
2015,03,09,13,31,12.50
2015,03,09,13,32,12.50
2015,03,09,13,33,12.30
2015,03,09,13,34,12.30
2015,03,09,13,35,12.20
2015,03,09,13,36,12.30
2015,03,09,13,37,12.30
2015,03,09,13,38,12.30
2015,03,09,13,39,12.30
2015,03,09,13,40,12.30
2015,03,09,13,41,12.20
2015,03,09,13,42,12.00
2015,03,09,13,43,12.00
2015,03,09,13,44,11.90
2015,03,09,13,45,11.80
2015,03,09,13,46,11.70
2015,03,09,13,47,11.60
2015,03,09,13,48,11.60
2015,03,09,13,49,11.70
2015,03,09,13,50,11.80
2015,03,09,13,51,11.80
2015,03,09,13,52,11.80
2015,03,09,13,53,12.00
2015,03,09,13,54,12.00
2015,03,09,13,55,12.00
2015,03,09,13,56,12.00
2015,03,09,13,57,11.90
2015,03,09,13,58,11.90
2015,03,09,13,59,12.00
2015,03,09,14,00,11.90
2015,03,09,14,01,11.90
2015,03,09,14,02,11.90
2015,03,09,14,03,11.90
2015,03,09,14,04,12.00
2015,03,09,14,05,12.00
2015,03,09,14,06,12.10
2015,03,09,14,07,12.20
2015,03,09,14,08,12.20
2015,03,09,14,09,12.20
2015,03,09,14,10,12.20
2015,03,09,14,11,12.20
2015,03,09,14,12,12.30
2015,03,09,14,13,12.30
2015,03,09,14,14,12.50
2015,03,09,14,15,12.60
2015,03,09,14,16,12.50
2015,03,09,14,17,12.40
2015,03,09,14,18,12.30
2015,03,09,14,19,12.30
2015,03,09,14,20,12.40
2015,03,09,14,21,12.40
2015,03,09,14,22,12.30
2015,03,09,14,23,12.30
2015,03,09,14,24,12.30
2015,03,09,14,25,12.50
2015,03,09,14,26,12.50
2015,03,09,14,27,12.60
2015,03,09,14,28,12.60
2015,03,09,14,29,12.70
2015,03,09,14,30,12.80
2015,03,09,14,31,12.80
2015,03,09,14,32,13.00
2015,03,09,14,33,13.10
2015,03,09,14,34,13.20
2015,03,09,14,35,13.10
2015,03,09,14,36,13.00
2015,03,09,14,37,13.00
2015,03,09,14,38,13.10
2015,03,09,14,39,13.20
2015,03,09,14,40,13.20
2015,03,09,14,41,13.20
2015,03,09,14,42,13.30
2015,03,09,14,43,13.40
2015,03,09,14,44,13.50
2015,03,09,14,45,13.50
2015,03,09,14,46,13.50
2015,03,09,14,47,13.30
2015,03,09,14,48,13.30
2015,03,09,14,49,13.30
2015,03,09,14,50,13.40
2015,03,09,14,51,13.50
2015,03,09,14,52,13.50
2015,03,09,14,53,13.60
2015,03,09,14,54,13.70
2015,03,09,14,55,13.70
2015,03,09,14,56,13.70
2015,03,09,14,57,13.80
2015,03,09,14,58,13.80
2015,03,09,14,59,13.70
2015,03,09,15,00,13.70
2015,03,09,15,01,13.70
2015,03,09,15,02,13.70
2015,03,09,15,03,13.70
2015,03,09,15,04,13.80
2015,03,09,15,05,13.80
2015,03,09,15,06,13.90
2015,03,09,15,07,14.00
2015,03,09,15,08,14.00
2015,03,09,15,09,14.00
2015,03,09,15,10,14.00
2015,03,09,15,11,13.90
2015,03,09,15,12,13.90
2015,03,09,15,13,13.90
2015,03,09,15,14,13.90
2015,03,09,15,15,13.80
2015,03,09,15,16,13.70
2015,03,09,15,17,13.60
2015,03,09,15,18,13.50
2015,03,09,15,19,13.40
2015,03,09,15,20,13.30
2015,03,09,15,21,13.20
2015,03,09,15,22,13.10
2015,03,09,15,23,13.10
2015,03,09,15,24,13.00
2015,03,09,15,25,12.80
2015,03,09,15,26,12.80
2015,03,09,15,27,12.80
2015,03,09,15,28,12.80
2015,03,09,15,29,12.80
2015,03,09,15,30,12.80
2015,03,09,15,31,12.70
2015,03,09,15,32,12.70
2015,03,09,15,33,12.60
2015,03,09,15,34,12.60
2015,03,09,15,35,12.60
2015,03,09,15,36,12.60
2015,03,09,15,37,12.60
2015,03,09,15,38,12.60
2015,03,09,15,39,12.70
2015,03,09,15,40,12.80
2015,03,09,15,41,12.80
2015,03,09,15,42,12.90
2015,03,09,15,43,12.90
2015,03,09,15,44,13.00
2015,03,09,15,45,13.00
2015,03,09,15,46,13.00
2015,03,09,15,47,12.90
2015,03,09,15,48,12.90
2015,03,09,15,49,12.70
2015,03,09,15,50,12.60
2015,03,09,15,51,12.60
2015,03,09,15,52,12.50
2015,03,09,15,53,12.50
2015,03,09,15,54,12.60
2015,03,09,15,55,12.60
2015,03,09,15,56,12.60
2015,03,09,15,57,12.60
2015,03,09,15,58,12.60
2015,03,09,15,59,12.60
2015,03,09,16,00,12.70
2015,03,09,16,01,12.70
2015,03,09,16,02,12.70
2015,03,09,16,03,12.70
2015,03,09,16,04,12.60
2015,03,09,16,05,12.60
2015,03,09,16,06,12.50
2015,03,09,16,07,12.60
2015,03,09,16,08,12.50
2015,03,09,16,09,12.50
2015,03,09,16,10,12.50
2015,03,09,16,11,12.40
2015,03,09,16,12,12.50
2015,03,09,16,13,12.60
2015,03,09,16,14,12.70
2015,03,09,16,15,12.80
2015,03,09,16,16,12.80
2015,03,09,16,17,12.90
2015,03,09,16,18,13.00
2015,03,09,16,19,13.00
2015,03,09,16,20,13.10
2015,03,09,16,21,13.10
2015,03,09,16,22,13.10
2015,03,09,16,23,13.10
2015,03,09,16,24,13.10
2015,03,09,16,25,13.00
2015,03,09,16,26,13.00
2015,03,09,16,27,13.00
2015,03,09,16,28,13.00
2015,03,09,16,29,13.10
2015,03,09,16,30,13.10
2015,03,09,16,31,13.10
2015,03,09,16,32,13.10
2015,03,09,16,33,13.10
2015,03,09,16,34,13.00
2015,03,09,16,35,13.00
2015,03,09,16,36,13.00
2015,03,09,16,37,13.10
2015,03,09,16,38,13.20
2015,03,09,16,39,13.30
2015,03,09,16,40,13.30
2015,03,09,16,41,13.30
2015,03,09,16,42,13.20
2015,03,09,16,43,13.20
2015,03,09,16,44,13.20
2015,03,09,16,45,13.10
2015,03,09,16,46,13.10
2015,03,09,16,47,13.00
2015,03,09,16,48,13.00
2015,03,09,16,49,13.00
2015,03,09,16,50,13.00
2015,03,09,16,51,13.00
2015,03,09,16,52,12.90
2015,03,09,16,53,12.90
2015,03,09,16,54,12.90
2015,03,09,16,55,12.90
2015,03,09,16,56,12.80
2015,03,09,16,57,12.80
2015,03,09,16,58,12.80
2015,03,09,16,59,12.80
2015,03,09,17,00,12.80
2015,03,09,17,01,12.70
2015,03,09,17,02,12.70
2015,03,09,17,03,12.60
2015,03,09,17,04,12.60
2015,03,09,17,05,12.70
2015,03,09,17,06,12.80
2015,03,09,17,07,12.80
2015,03,09,17,08,12.80
2015,03,09,17,09,12.90
2015,03,09,17,10,12.80
2015,03,09,17,11,12.90
2015,03,09,17,12,12.90
2015,03,09,17,13,13.00
2015,03,09,17,14,13.00
2015,03,09,17,15,13.00
2015,03,09,17,16,13.00
2015,03,09,17,17,12.90
2015,03,09,17,18,12.90
2015,03,09,17,19,12.90
2015,03,09,17,20,12.80
2015,03,09,17,21,12.80
2015,03,09,17,22,12.80
2015,03,09,17,23,12.80
2015,03,09,17,24,12.80
2015,03,09,17,25,12.80
2015,03,09,17,26,12.80
2015,03,09,17,27,12.90
2015,03,09,17,28,12.90
2015,03,09,17,29,13.00
2015,03,09,17,30,12.90
2015,03,09,17,31,12.80
2015,03,09,17,32,12.60
2015,03,09,17,33,12.60
2015,03,09,17,34,12.50
2015,03,09,17,35,12.50
2015,03,09,17,36,12.50
2015,03,09,17,37,12.50
2015,03,09,17,38,12.50
2015,03,09,17,39,12.50
2015,03,09,17,40,12.50
2015,03,09,17,41,12.50
2015,03,09,17,42,12.40
2015,03,09,17,43,12.40
2015,03,09,17,44,12.30
2015,03,09,17,45,12.30
2015,03,09,17,46,12.30
2015,03,09,17,47,12.30
2015,03,09,17,48,12.30
2015,03,09,17,49,12.20
2015,03,09,17,50,12.10
2015,03,09,17,51,12.10
2015,03,09,17,52,12.10